Time,TemperatureF,DewpointF,PressureIn,WindDirection,WindDirectionDegrees,WindSpeedMPH,WindSpeedGustMPH,Humidity,HourlyPrecipIn,Conditions,Clouds,dailyrainin,SolarRadiationWatts/m^2,SoftwareType,DateUTC
2014-01-02 00:01:00,41.9,36.5,30.15,ESE,111,0.0,0.0,81,0.00,BKN,,0.00,0.0,WeatherDisplay:10.37,2014-01-02 05:01:00,
2014-01-02 00:06:00,42.1,36.7,30.15,ESE,111,0.0,0.0,81,0.00,BKN,,0.00,0.0,WeatherDisplay:10.37,2014-01-02 05:06:00,
2014-01-02 00:11:00,42.1,36.7,30.15,ESE,111,0.0,0.0,81,0.00,BKN,,0.00,0.0,WeatherDisplay:10.37,2014-01-02 05:11:00,
2014-01-02 00:16:00,42.1,36.4,30.14,ESE,111,0.0,0.0,80,0.00,BKN,,0.00,0.0,WeatherDisplay:10.37,2014-01-02 05:16:00,
2014-01-02 00:21:00,42.1,36.4,30.13,ESE,111,0.0,0.0,80,0.00,BKN,,0.00,0.0,WeatherDisplay:10.37,2014-01-02 05:21:00,
2014-01-02 00:26:00,42.1,36.4,30.13,ESE,111,0.0,0.0,80,0.00,BKN,,0.00,0.0,WeatherDisplay:10.37,2014-01-02 05:26:00,
2014-01-02 00:31:00,42.1,36.4,30.13,ESE,111,0.0,0.0,80,0.00,BKN,,0.00,0.0,WeatherDisplay:10.37,2014-01-02 05:31:00,
2014-01-02 00:36:00,42.1,36.1,30.12,ESE,111,0.0,0.0,79,0.00,BKN,,0.00,0.0,WeatherDisplay:10.37,2014-01-02 05:36:00,
2014-01-02 00:41:00,42.1,36.1,30.12,ESE,111,0.0,0.0,79,0.00,BKN,,0.00,0.0,WeatherDisplay:10.37,2014-01-02 05:41:00,
2014-01-02 00:46:00,41.9,35.9,30.12,ESE,111,0.0,0.0,79,0.00,BKN,,0.00,0.0,WeatherDisplay:10.37,2014-01-02 05:46:00,
2014-01-02 00:51:00,41.9,35.9,30.12,ESE,111,0.0,0.0,79,0.00,BKN,,0.00,0.0,WeatherDisplay:10.37,2014-01-02 05:51:00,
2014-01-02 00:56:00,41.8,35.8,30.12,ESE,111,0.0,0.0,79,0.00,BKN,,0.00,0.0,WeatherDisplay:10.37,2014-01-02 05:56:00,
2014-01-02 01:01:00,41.8,35.8,30.12,ESE,111,0.0,0.0,79,0.00,BKN,,0.00,0.0,WeatherDisplay:10.37,2014-01-02 06:01:00,
2014-01-02 01:11:00,41.6,35.8,30.11,ESE,111,0.0,0.0,80,0.00,BKN,,0.00,0.0,WeatherDisplay:10.37,2014-01-02 06:11:00,
2014-01-02 01:16:00,41.5,36.1,30.11,ESE,111,0.0,0.0,81,0.00,BKN,,0.00,0.0,WeatherDisplay:10.37,2014-01-02 06:16:00,
2014-01-02 01:21:00,41.3,35.6,30.10,ESE,111,0.0,0.0,80,0.00,BKN,,0.00,0.0,WeatherDisplay:10.37,2014-01-02 06:21:00,
2014-01-02 01:26:00,41.2,35.5,30.10,ESE,111,0.0,0.0,80,0.00,BKN,,0.00,0.0,WeatherDisplay:10.37,2014-01-02 06:26:00,
2014-01-02 01:31:00,41.1,35.7,30.10,ESE,111,0.0,0.0,81,0.00,BKN,,0.00,0.0,WeatherDisplay:10.37,2014-01-02 06:31:00,
2014-01-02 01:36:00,40.9,35.5,30.10,ESE,111,0.0,0.0,81,0.00,BKN,,0.00,0.0,WeatherDisplay:10.37,2014-01-02 06:36:00,
2014-01-02 01:41:00,40.8,35.4,30.10,ESE,111,0.0,0.0,81,0.00,BKN,,0.00,0.0,WeatherDisplay:10.37,2014-01-02 06:41:00,
2014-01-02 01:46:00,40.6,35.3,30.10,ESE,111,0.0,0.0,81,0.00,BKN,,0.00,0.0,WeatherDisplay:10.37,2014-01-02 06:46:00,
2014-01-02 01:56:00,40.5,35.1,30.10,ESE,111,0.0,0.0,81,0.00,BKN,,0.00,0.0,WeatherDisplay:10.37,2014-01-02 06:56:00,
2014-01-02 02:01:00,40.5,35.4,30.10,ESE,111,0.0,0.0,82,0.00,BKN,,0.00,0.0,WeatherDisplay:10.37,2014-01-02 07:01:00,
2014-01-02 02:11:00,40.3,35.2,30.10,ESE,111,0.0,0.0,82,0.00,BKN,,0.00,0.0,WeatherDisplay:10.37,2014-01-02 07:11:00,
2014-01-02 02:16:00,40.2,35.1,30.10,ESE,111,0.0,0.0,82,0.00,BKN,,0.00,0.0,WeatherDisplay:10.37,2014-01-02 07:16:00,
2014-01-02 02:21:00,40.2,35.4,30.10,ESE,111,0.0,0.0,83,0.00,BKN,,0.00,0.0,WeatherDisplay:10.37,2014-01-02 07:21:00,
2014-01-02 02:26:00,40.2,35.4,30.10,ESE,111,0.0,0.0,83,0.00,BKN,,0.00,0.0,WeatherDisplay:10.37,2014-01-02 07:26:00,
2014-01-02 02:31:00,40.2,35.8,30.09,ESE,111,0.0,0.0,84,0.00,BKN,,0.00,0.0,WeatherDisplay:10.37,2014-01-02 07:31:00,
2014-01-02 02:36:00,40.1,35.7,30.09,ESE,111,0.0,0.0,84,0.00,BKN,,0.00,0.0,WeatherDisplay:10.37,2014-01-02 07:36:00,
2014-01-02 02:41:00,40.1,35.7,30.09,ESE,111,0.0,0.0,84,0.00,BKN,,0.00,0.0,WeatherDisplay:10.37,2014-01-02 07:41:00,
2014-01-02 02:46:00,40.1,35.7,30.08,ESE,111,0.0,0.0,84,0.00,BKN,,0.00,0.0,WeatherDisplay:10.37,2014-01-02 07:46:00,
2014-01-02 02:51:00,40.1,35.9,30.08,ESE,111,0.0,0.0,85,0.00,BKN,,0.00,0.0,WeatherDisplay:10.37,2014-01-02 07:51:00,
2014-01-02 02:56:00,39.9,35.8,30.08,ESE,111,0.0,0.0,85,0.00,BKN,,0.00,0.0,WeatherDisplay:10.37,2014-01-02 07:56:00,
2014-01-02 03:01:00,39.9,35.8,30.08,ESE,111,0.0,0.0,85,0.00,BKN,,0.00,0.0,WeatherDisplay:10.37,2014-01-02 08:01:00,
2014-01-02 03:11:00,39.9,35.8,30.07,ESE,111,0.0,0.0,85,0.00,BKN,,0.00,0.0,WeatherDisplay:10.37,2014-01-02 08:11:00,
2014-01-02 03:16:00,39.8,35.7,30.07,ESE,111,0.0,0.0,85,0.00,BKN,,0.00,0.0,WeatherDisplay:10.37,2014-01-02 08:16:00,
2014-01-02 03:21:00,39.9,35.7,30.06,ESE,111,0.0,0.0,85,0.00,BKN,,0.00,0.0,WeatherDisplay:10.37,2014-01-02 08:21:00,
2014-01-02 03:26:00,39.8,35.7,30.06,ESE,111,0.0,0.0,85,0.00,BKN,,0.00,0.0,WeatherDisplay:10.37,2014-01-02 08:26:00,
2014-01-02 03:31:00,39.8,36.0,30.06,ESE,111,0.0,0.0,86,0.00,BKN,,0.00,0.0,WeatherDisplay:10.37,2014-01-02 08:31:00,
2014-01-02 03:36:00,39.8,36.0,30.07,ESE,111,0.0,0.0,86,0.00,BKN,,0.00,0.0,WeatherDisplay:10.37,2014-01-02 08:36:00,
2014-01-02 03:41:00,39.9,36.1,30.07,ESE,111,0.0,0.0,86,0.00,BKN,,0.00,0.0,WeatherDisplay:10.37,2014-01-02 08:41:00,
2014-01-02 03:46:00,39.9,36.1,30.06,ESE,111,0.0,0.0,86,0.00,BKN,,0.00,0.0,WeatherDisplay:10.37,2014-01-02 08:46:00,
2014-01-02 03:51:00,40.1,36.5,30.05,ESE,111,0.0,0.0,87,0.00,BKN,,0.00,0.0,WeatherDisplay:10.37,2014-01-02 08:51:00,
2014-01-02 03:56:00,40.1,36.5,30.05,ESE,111,0.0,0.0,87,0.00,BKN,,0.00,0.0,WeatherDisplay:10.37,2014-01-02 08:56:00,
2014-01-02 04:01:00,40.1,36.5,30.05,ESE,111,0.0,0.0,87,0.00,BKN,,0.00,0.0,WeatherDisplay:10.37,2014-01-02 09:01:00,
2014-01-02 04:11:00,40.2,36.6,30.05,ESE,111,0.0,0.0,87,0.00,BKN,,0.00,0.0,WeatherDisplay:10.37,2014-01-02 09:11:00,
2014-01-02 04:16:00,40.2,36.3,30.05,ESE,111,0.0,0.0,86,0.00,BKN,,0.00,0.0,WeatherDisplay:10.37,2014-01-02 09:16:00,
2014-01-02 04:21:00,40.2,36.3,30.05,ESE,111,0.0,0.0,86,0.00,BKN,,0.00,0.0,WeatherDisplay:10.37,2014-01-02 09:21:00,
2014-01-02 04:26:00,40.2,36.3,30.05,ESE,111,0.0,0.0,86,0.00,BKN,,0.00,0.0,WeatherDisplay:10.37,2014-01-02 09:26:00,
2014-01-02 04:31:00,40.3,36.4,30.04,ESE,111,0.0,0.0,86,0.00,BKN,,0.00,0.0,WeatherDisplay:10.37,2014-01-02 09:31:00,
2014-01-02 04:36:00,40.3,36.1,30.03,ESE,111,0.0,0.0,85,0.00,BKN,,0.00,0.0,WeatherDisplay:10.37,2014-01-02 09:36:00,
2014-01-02 04:41:00,40.3,36.1,30.03,ESE,111,0.0,0.0,85,0.00,BKN,,0.00,0.0,WeatherDisplay:10.37,2014-01-02 09:41:00,
2014-01-02 04:46:00,40.5,36.0,30.02,ESE,111,0.0,0.0,84,0.00,BKN,,0.00,0.0,WeatherDisplay:10.37,2014-01-02 09:46:00,
2014-01-02 04:51:00,40.5,36.0,30.01,ESE,111,0.0,0.0,84,0.00,BKN,,0.00,0.0,WeatherDisplay:10.37,2014-01-02 09:51:00,
2014-01-02 04:56:00,40.6,36.1,30.01,ESE,111,0.0,0.0,84,0.00,BKN,,0.00,0.0,WeatherDisplay:10.37,2014-01-02 09:56:00,
2014-01-02 05:01:00,40.6,36.1,30.01,ESE,111,0.0,0.0,84,0.00,OVC,,0.00,0.0,WeatherDisplay:10.37,2014-01-02 10:01:00,
2014-01-02 05:11:00,40.8,35.7,30.00,ESE,111,0.0,0.0,82,0.00,OVC,,0.00,0.0,WeatherDisplay:10.37,2014-01-02 10:11:00,
2014-01-02 05:16:00,40.9,35.8,30.00,ESE,111,0.0,0.0,82,0.00,OVC,,0.00,0.0,WeatherDisplay:10.37,2014-01-02 10:16:00,
2014-01-02 05:21:00,41.1,36.0,30.00,ESE,111,0.0,0.0,82,0.00,OVC,,0.00,0.0,WeatherDisplay:10.37,2014-01-02 10:21:00,
2014-01-02 05:26:00,41.1,36.0,30.00,ESE,111,0.0,0.0,82,0.00,OVC,,0.00,0.0,WeatherDisplay:10.37,2014-01-02 10:26:00,
2014-01-02 05:31:00,41.1,36.0,30.00,ESE,111,0.0,0.0,82,0.00,OVC,,0.00,0.0,WeatherDisplay:10.37,2014-01-02 10:31:00,
2014-01-02 05:36:00,41.2,35.8,30.00,ESE,111,0.0,0.0,81,0.00,OVC,,0.00,0.0,WeatherDisplay:10.37,2014-01-02 10:36:00,
2014-01-02 05:41:00,41.2,35.8,30.00,ESE,111,0.0,0.0,81,0.00,OVC,,0.00,0.0,WeatherDisplay:10.37,2014-01-02 10:41:00,
2014-01-02 05:46:00,41.2,35.8,29.99,ESE,111,0.0,0.0,81,0.00,OVC,,0.00,0.0,WeatherDisplay:10.37,2014-01-02 10:46:00,
2014-01-02 05:51:00,41.2,35.8,29.99,ESE,111,0.0,0.0,81,0.00,OVC,,0.00,0.0,WeatherDisplay:10.37,2014-01-02 10:51:00,
2014-01-02 05:56:00,41.2,35.8,29.99,ESE,111,0.0,0.0,81,0.00,OVC,,0.00,0.0,WeatherDisplay:10.37,2014-01-02 10:56:00,
2014-01-02 06:01:00,41.3,35.9,29.99,ESE,111,0.0,0.0,81,0.00,OVC,,0.00,0.0,WeatherDisplay:10.37,2014-01-02 11:01:00,
2014-01-02 06:11:00,41.5,36.4,30.00,ESE,111,0.0,0.0,82,0.00,OVC,,0.00,0.0,WeatherDisplay:10.37,2014-01-02 11:11:00,
2014-01-02 06:16:00,41.5,36.4,29.99,ESE,111,0.0,0.0,82,0.00,OVC,,0.00,0.0,WeatherDisplay:10.37,2014-01-02 11:16:00,
2014-01-02 06:21:00,41.5,36.4,29.99,ESE,111,0.0,0.0,82,0.00,OVC,,0.00,0.0,WeatherDisplay:10.37,2014-01-02 11:21:00,
2014-01-02 06:26:00,41.5,36.4,29.99,ESE,111,0.0,0.0,82,0.00,OVC,,0.00,0.0,WeatherDisplay:10.37,2014-01-02 11:26:00,
2014-01-02 06:31:00,41.5,36.7,29.99,ESE,111,0.0,0.0,83,0.00,OVC,,0.00,0.0,WeatherDisplay:10.37,2014-01-02 11:31:00,
2014-01-02 06:36:00,41.5,36.7,29.99,ESE,111,0.0,0.0,83,0.00,OVC,,0.00,0.0,WeatherDisplay:10.37,2014-01-02 11:36:00,
2014-01-02 06:41:00,41.5,37.0,29.99,ESE,111,0.0,0.0,84,0.00,OVC,,0.00,0.0,WeatherDisplay:10.37,2014-01-02 11:41:00,
2014-01-02 06:46:00,41.6,37.1,29.99,ESE,111,0.0,0.0,84,0.00,OVC,,0.00,0.0,WeatherDisplay:10.37,2014-01-02 11:46:00,
2014-01-02 06:51:00,41.6,37.1,29.98,ESE,112,0.0,0.0,84,0.00,OVC,,0.00,0.0,WeatherDisplay:10.37,2014-01-02 11:51:00,
2014-01-02 06:56:00,41.6,37.1,29.98,ESE,114,0.0,0.0,84,0.00,OVC,,0.00,0.0,WeatherDisplay:10.37,2014-01-02 11:56:00,
2014-01-02 07:01:00,41.6,37.1,29.98,ESE,114,0.0,0.0,84,0.00,OVC,,0.00,0.0,WeatherDisplay:10.37,2014-01-02 12:01:00,
2014-01-02 07:11:00,41.6,37.4,29.98,ESE,114,0.0,0.0,85,0.00,OVC,,0.00,0.0,WeatherDisplay:10.37,2014-01-02 12:11:00,
2014-01-02 07:16:00,41.6,37.4,29.98,ESE,114,0.0,0.0,85,0.00,OVC,,0.00,0.0,WeatherDisplay:10.37,2014-01-02 12:16:00,
2014-01-02 07:21:00,41.6,37.4,29.97,ESE,114,0.0,0.0,85,0.00,OVC,,0.00,0.0,WeatherDisplay:10.37,2014-01-02 12:21:00,
2014-01-02 07:26:00,41.6,37.4,29.97,ESE,114,0.0,0.0,85,0.00,OVC,,0.00,0.0,WeatherDisplay:10.37,2014-01-02 12:26:00,
2014-01-02 07:31:00,41.6,37.4,29.97,ESE,114,0.0,0.0,85,0.00,OVC,,0.00,0.0,WeatherDisplay:10.37,2014-01-02 12:31:00,
2014-01-02 07:36:00,41.6,37.4,29.96,ESE,114,0.0,0.0,85,0.00,OVC,,0.00,0.0,WeatherDisplay:10.37,2014-01-02 12:36:00,
2014-01-02 07:41:00,41.5,37.3,29.96,ESE,114,0.0,0.0,85,0.00,OVC,,0.00,8.1,WeatherDisplay:10.37,2014-01-02 12:41:00,
2014-01-02 07:46:00,41.5,37.3,29.96,ESE,114,0.0,0.0,85,0.00,OVC,,0.00,8.1,WeatherDisplay:10.37,2014-01-02 12:46:00,
2014-01-02 07:51:00,41.5,37.3,29.96,ESE,114,0.0,0.0,85,0.00,OVC,,0.00,8.1,WeatherDisplay:10.37,2014-01-02 12:51:00,
2014-01-02 07:56:00,41.5,37.3,29.96,ESE,114,0.0,0.0,85,0.00,OVC,,0.00,8.1,WeatherDisplay:10.37,2014-01-02 12:56:00,
2014-01-02 08:01:00,41.5,37.3,29.96,ESE,114,0.0,0.0,85,0.00,OVC,,0.00,10.3,WeatherDisplay:10.37,2014-01-02 13:01:00,
2014-01-02 08:11:00,41.5,37.3,29.95,SSW,202,0.0,0.0,85,0.00,OVC,,0.00,13.8,WeatherDisplay:10.37,2014-01-02 13:11:00,
2014-01-02 08:16:00,41.5,37.3,29.95,SSW,194,0.0,0.0,85,0.00,OVC,,0.00,18.4,WeatherDisplay:10.37,2014-01-02 13:16:00,
2014-01-02 08:21:00,41.5,37.3,29.94,South,186,0.0,0.0,85,0.00,OVC,,0.00,21.9,WeatherDisplay:10.37,2014-01-02 13:21:00,
2014-01-02 08:26:00,41.5,37.3,29.94,South,186,0.0,0.0,85,0.00,OVC,,0.00,24.1,WeatherDisplay:10.37,2014-01-02 13:26:00,
2014-01-02 08:31:00,41.6,37.4,29.94,South,186,0.0,0.0,85,0.00,OVC,,0.00,24.1,WeatherDisplay:10.37,2014-01-02 13:31:00,
2014-01-02 08:36:00,41.6,37.1,29.93,South,186,0.0,0.0,84,0.00,OVC,,0.00,26.4,WeatherDisplay:10.37,2014-01-02 13:36:00,
2014-01-02 08:41:00,41.6,37.1,29.93,South,186,0.0,0.0,84,0.00,OVC,,0.00,29.9,WeatherDisplay:10.37,2014-01-02 13:41:00,
2014-01-02 08:46:00,41.7,37.3,29.93,South,186,0.0,0.0,84,0.00,OVC,,0.00,42.5,WeatherDisplay:10.37,2014-01-02 13:46:00,
2014-01-02 08:51:00,41.8,37.3,29.93,South,186,0.0,0.0,84,0.00,OVC,,0.00,42.5,WeatherDisplay:10.37,2014-01-02 13:51:00,
2014-01-02 08:56:00,41.9,37.4,29.93,South,186,0.0,0.0,84,0.00,OVC,,0.00,40.3,WeatherDisplay:10.37,2014-01-02 13:56:00,
2014-01-02 09:01:00,42.1,37.6,29.93,South,186,0.0,0.0,84,0.00,OVC,,0.00,54.0,WeatherDisplay:10.37,2014-01-02 14:01:00,
2014-01-02 09:11:00,42.2,37.7,29.93,South,186,0.0,0.0,84,0.00,OVC,,0.00,42.5,WeatherDisplay:10.37,2014-01-02 14:11:00,
2014-01-02 09:16:00,42.3,37.8,29.93,South,186,0.0,0.0,84,0.00,OVC,,0.00,61.0,WeatherDisplay:10.37,2014-01-02 14:16:00,
2014-01-02 09:21:00,42.5,38.0,29.92,South,186,0.0,0.0,84,0.00,OVC,,0.00,66.7,WeatherDisplay:10.37,2014-01-02 14:21:00,
2014-01-02 09:26:00,42.6,38.1,29.92,South,186,0.0,0.0,84,0.00,OVC,,0.00,58.6,WeatherDisplay:10.37,2014-01-02 14:26:00,
2014-01-02 09:31:00,42.8,38.3,29.92,South,175,0.0,0.0,84,0.00,OVC,,0.00,58.6,WeatherDisplay:10.37,2014-01-02 14:31:00,
2014-01-02 09:36:00,42.9,38.4,29.92,South,182,0.0,0.0,84,0.00,OVC,,0.00,58.6,WeatherDisplay:10.37,2014-01-02 14:36:00,
2014-01-02 09:41:00,43.1,38.6,29.92,South,187,0.0,0.0,84,0.00,OVC,,0.00,66.7,WeatherDisplay:10.37,2014-01-02 14:41:00,
2014-01-02 09:46:00,43.3,38.8,29.93,SSW,206,0.0,0.0,84,0.00,OVC,,0.00,64.4,WeatherDisplay:10.37,2014-01-02 14:46:00,
2014-01-02 09:51:00,43.5,39.0,29.94,SW,219,0.0,0.0,84,0.00,OVC,,0.00,82.8,WeatherDisplay:10.37,2014-01-02 14:51:00,
2014-01-02 09:56:00,43.7,39.2,29.94,SW,219,0.0,0.0,84,0.00,OVC,,0.00,80.5,WeatherDisplay:10.37,2014-01-02 14:56:00,
2014-01-02 10:01:00,43.9,39.4,29.93,SW,219,0.0,0.0,84,0.00,OVC,,0.00,69.0,WeatherDisplay:10.37,2014-01-02 15:01:00,
2014-01-02 10:11:00,44.2,39.1,29.92,SW,218,0.0,0.0,82,0.00,OVC,,0.00,93.2,WeatherDisplay:10.37,2014-01-02 15:11:00,
2014-01-02 10:16:00,44.3,39.2,29.92,SW,217,0.0,0.0,82,0.00,OVC,,0.00,98.9,WeatherDisplay:10.37,2014-01-02 15:16:00,
2014-01-02 10:21:00,44.5,39.3,29.91,SW,215,0.0,0.0,82,0.00,OVC,,0.00,95.5,WeatherDisplay:10.37,2014-01-02 15:21:00,
2014-01-02 10:26:00,44.6,39.4,29.91,SW,215,0.0,0.0,82,0.00,OVC,,0.00,87.4,WeatherDisplay:10.37,2014-01-02 15:26:00,
2014-01-02 10:31:00,44.8,39.6,29.90,SW,215,0.0,0.0,82,0.00,OVC,,0.00,79.3,WeatherDisplay:10.37,2014-01-02 15:31:00,
2014-01-02 10:36:00,44.9,39.4,29.90,SSW,204,0.0,0.0,81,0.00,OVC,,0.00,74.8,WeatherDisplay:10.37,2014-01-02 15:36:00,
2014-01-02 10:41:00,45.1,39.6,29.90,South,185,0.0,0.0,81,0.00,OVC,,0.00,69.0,WeatherDisplay:10.37,2014-01-02 15:41:00,
2014-01-02 10:46:00,45.2,39.7,29.89,South,178,0.0,0.0,81,0.00,OVC,,0.00,58.6,WeatherDisplay:10.37,2014-01-02 15:46:00,
2014-01-02 10:51:00,45.4,39.9,29.89,South,178,0.0,0.0,81,0.00,OVC,,0.00,62.1,WeatherDisplay:10.37,2014-01-02 15:51:00,
2014-01-02 10:56:00,45.5,40.0,29.89,South,178,0.0,0.0,81,0.00,OVC,,0.00,87.4,WeatherDisplay:10.37,2014-01-02 15:56:00,
2014-01-02 11:01:00,45.5,40.0,29.88,South,178,0.0,0.0,81,0.00,OVC,,0.00,69.0,WeatherDisplay:10.37,2014-01-02 16:01:00,
2014-01-02 11:11:00,45.7,39.9,29.88,SSW,210,0.0,0.0,80,0.00,OVC,,0.00,66.7,WeatherDisplay:10.37,2014-01-02 16:11:00,
2014-01-02 11:16:00,45.8,40.0,29.88,SSW,211,0.0,0.0,80,0.00,OVC,,0.00,72.5,WeatherDisplay:10.37,2014-01-02 16:16:00,
2014-01-02 11:21:00,46.0,40.2,29.87,SSW,211,0.0,0.0,80,0.00,OVC,,0.00,71.3,WeatherDisplay:10.37,2014-01-02 16:21:00,
2014-01-02 11:26:00,46.0,40.5,29.87,SSW,211,0.0,0.0,81,0.00,OVC,,0.00,66.7,WeatherDisplay:10.37,2014-01-02 16:26:00,
2014-01-02 11:31:00,46.1,40.6,29.87,SSW,211,0.0,0.0,81,0.00,OVC,,0.00,61.0,WeatherDisplay:10.37,2014-01-02 16:31:00,
2014-01-02 11:36:00,46.2,40.7,29.86,SSW,211,0.0,0.0,81,0.00,OVC,,0.00,62.1,WeatherDisplay:10.37,2014-01-02 16:36:00,
2014-01-02 11:41:00,46.2,40.7,29.86,SSW,211,0.0,0.0,81,0.00,OVC,,0.00,61.0,WeatherDisplay:10.37,2014-01-02 16:41:00,
2014-01-02 11:46:00,46.4,40.9,29.85,SSW,211,0.0,0.0,81,0.00,OVC,,0.00,74.8,WeatherDisplay:10.37,2014-01-02 16:46:00,
2014-01-02 11:51:00,46.4,40.9,29.83,SSW,211,0.0,0.0,81,0.00,OVC,,0.00,90.8,WeatherDisplay:10.37,2014-01-02 16:51:00,
2014-01-02 11:56:00,46.5,41.3,29.83,SSW,211,0.0,0.0,82,0.00,OVC,,0.00,62.1,WeatherDisplay:10.37,2014-01-02 16:56:00,
2014-01-02 12:01:00,46.5,41.3,29.83,SSW,211,0.0,0.0,82,0.00,OVC,,0.00,66.7,WeatherDisplay:10.37,2014-01-02 17:01:00,
2014-01-02 12:11:00,46.7,41.5,29.82,SSW,211,0.0,0.0,82,0.00,OVC,,0.00,58.6,WeatherDisplay:10.37,2014-01-02 17:11:00,
2014-01-02 12:16:00,46.8,41.9,29.82,SSW,211,0.0,0.0,83,0.00,OVC,,0.00,72.5,WeatherDisplay:10.37,2014-01-02 17:16:00,
2014-01-02 12:21:00,46.8,41.9,29.81,SSW,211,0.0,0.0,83,0.00,OVC,,0.00,77.0,WeatherDisplay:10.37,2014-01-02 17:21:00,
2014-01-02 12:26:00,46.8,41.9,29.81,SSW,211,0.0,0.0,83,0.00,OVC,,0.00,87.4,WeatherDisplay:10.37,2014-01-02 17:26:00,
2014-01-02 12:31:00,47.0,42.1,29.80,SSW,211,0.0,0.0,83,0.00,OVC,,0.00,80.5,WeatherDisplay:10.37,2014-01-02 17:31:00,
2014-01-02 12:36:00,47.0,42.1,29.80,SSW,211,0.0,0.0,83,0.00,OVC,,0.00,82.8,WeatherDisplay:10.37,2014-01-02 17:36:00,
2014-01-02 12:41:00,47.0,42.1,29.80,SSW,211,0.0,0.0,83,0.00,OVC,,0.00,119.6,WeatherDisplay:10.37,2014-01-02 17:41:00,
2014-01-02 12:46:00,47.0,42.4,29.79,SSW,211,0.0,0.0,84,0.00,OVC,,0.00,103.5,WeatherDisplay:10.37,2014-01-02 17:46:00,
2014-01-02 12:51:00,47.1,42.5,29.78,SSW,206,0.0,0.0,84,0.00,OVC,,0.00,71.3,WeatherDisplay:10.37,2014-01-02 17:51:00,
2014-01-02 12:56:00,47.1,42.5,29.78,SSW,202,0.0,0.0,84,0.00,OVC,,0.00,82.8,WeatherDisplay:10.37,2014-01-02 17:56:00,
2014-01-02 13:01:00,47.3,42.7,29.77,SSW,201,0.0,0.0,84,0.00,OVC,,0.00,93.2,WeatherDisplay:10.37,2014-01-02 18:01:00,
2014-01-02 13:11:00,47.4,43.1,29.77,SSW,196,0.0,0.0,85,0.00,OVC,,0.00,77.0,WeatherDisplay:10.37,2014-01-02 18:11:00,
2014-01-02 13:16:00,47.4,43.1,29.76,South,172,0.0,0.0,85,0.00,OVC,,0.00,71.3,WeatherDisplay:10.37,2014-01-02 18:16:00,
2014-01-02 13:21:00,47.4,43.1,29.76,SSE,156,0.0,0.0,85,0.00,OVC,,0.00,62.1,WeatherDisplay:10.37,2014-01-02 18:21:00,
2014-01-02 13:26:00,47.4,43.1,29.76,SSE,162,0.0,0.0,85,0.00,OVC,,0.00,72.5,WeatherDisplay:10.37,2014-01-02 18:26:00,
2014-01-02 13:31:00,47.4,43.1,29.76,SSE,163,0.0,0.0,85,0.00,OVC,,0.00,71.3,WeatherDisplay:10.37,2014-01-02 18:31:00,
2014-01-02 13:36:00,47.6,43.3,29.75,SE,140,0.0,0.0,85,0.00,OVC,,0.00,66.7,WeatherDisplay:10.37,2014-01-02 18:36:00,
2014-01-02 13:41:00,47.6,43.3,29.75,South,183,0.0,0.0,85,0.00,OVC,,0.00,71.3,WeatherDisplay:10.37,2014-01-02 18:41:00,
2014-01-02 13:46:00,47.6,43.6,29.75,South,189,0.0,0.0,86,0.00,OVC,,0.00,54.0,WeatherDisplay:10.37,2014-01-02 18:46:00,
2014-01-02 13:51:00,47.6,43.6,29.74,SSE,150,0.0,0.0,86,0.00,OVC,,0.00,61.0,WeatherDisplay:10.37,2014-01-02 18:51:00,
2014-01-02 13:56:00,47.7,43.7,29.74,SSW,203,0.0,0.0,86,0.00,OVC,,0.00,87.4,WeatherDisplay:10.37,2014-01-02 18:56:00,
2014-01-02 14:01:00,47.7,44.0,29.73,SSW,212,0.0,0.0,87,0.00,OVC,,0.00,56.4,WeatherDisplay:10.37,2014-01-02 19:01:00,
2014-01-02 14:11:00,47.9,44.2,29.73,South,183,0.0,0.0,87,0.00,OVC,,0.00,48.3,WeatherDisplay:10.37,2014-01-02 19:11:00,
2014-01-02 14:16:00,47.9,44.2,29.73,East,83,0.0,0.0,87,0.00,OVC,,0.00,38.0,WeatherDisplay:10.37,2014-01-02 19:16:00,
2014-01-02 14:21:00,47.9,44.2,29.72,ESE,109,0.0,0.0,87,0.00,OVC,,0.00,44.9,WeatherDisplay:10.37,2014-01-02 19:21:00,
2014-01-02 14:26:00,47.9,44.5,29.72,ESE,117,0.0,0.0,88,0.00,OVC,,0.00,54.0,WeatherDisplay:10.37,2014-01-02 19:26:00,
2014-01-02 14:31:00,47.9,44.5,29.72,SE,130,0.0,0.0,88,0.00,OVC,,0.00,40.3,WeatherDisplay:10.37,2014-01-02 19:31:00,
2014-01-02 14:36:00,47.9,44.5,29.72,SSE,159,0.0,0.0,88,0.00,OVC,,0.00,38.0,WeatherDisplay:10.37,2014-01-02 19:36:00,
2014-01-02 14:41:00,47.9,44.5,29.72,SSE,165,0.0,0.0,88,0.00,OVC,,0.00,40.3,WeatherDisplay:10.37,2014-01-02 19:41:00,
2014-01-02 14:46:00,48.0,44.6,29.71,SSE,148,0.0,0.0,88,0.00,OVC,,0.00,42.5,WeatherDisplay:10.37,2014-01-02 19:46:00,
2014-01-02 14:51:00,48.0,44.9,29.70,SE,143,0.0,0.0,89,0.00,OVC,,0.00,28.8,WeatherDisplay:10.37,2014-01-02 19:51:00,
2014-01-02 14:56:00,48.0,44.9,29.70,SSE,153,0.0,0.0,89,0.00,OVC,,0.00,21.9,WeatherDisplay:10.37,2014-01-02 19:56:00,
2014-01-02 15:01:00,48.0,44.9,29.70,SSE,153,0.0,0.0,89,0.00,-RA,,0.00,29.9,WeatherDisplay:10.37,2014-01-02 20:01:00,
2014-01-02 15:11:00,47.9,44.8,29.70,SSE,153,0.0,0.0,89,0.01,-RA,,0.01,36.8,WeatherDisplay:10.37,2014-01-02 20:11:00,
2014-01-02 15:16:00,47.9,44.8,29.70,SSE,153,0.0,0.0,89,0.01,-RA,,0.01,29.9,WeatherDisplay:10.37,2014-01-02 20:16:00,
2014-01-02 15:21:00,47.9,45.1,29.70,SSE,153,0.0,0.0,90,0.01,-RA,,0.01,32.2,WeatherDisplay:10.37,2014-01-02 20:21:00,
2014-01-02 15:26:00,47.9,45.1,29.70,SSE,153,0.0,0.0,90,0.02,-RA,,0.02,21.9,WeatherDisplay:10.37,2014-01-02 20:26:00,
2014-01-02 15:31:00,47.9,45.1,29.69,SSE,153,0.0,0.0,90,0.02,-RA,,0.02,29.9,WeatherDisplay:10.37,2014-01-02 20:31:00,
2014-01-02 15:36:00,47.9,45.1,29.67,SSE,155,0.0,0.0,90,0.02,-RA,,0.02,26.4,WeatherDisplay:10.37,2014-01-02 20:36:00,
2014-01-02 15:41:00,47.9,45.4,29.67,SSE,157,0.0,0.0,91,0.03,-RA,,0.03,16.1,WeatherDisplay:10.37,2014-01-02 20:41:00,
2014-01-02 15:46:00,47.9,45.4,29.68,SSE,158,0.0,0.0,91,0.03,-RA,,0.03,10.3,WeatherDisplay:10.37,2014-01-02 20:46:00,
2014-01-02 15:51:00,47.9,45.4,29.69,SSE,158,0.0,0.0,91,0.03,-RA,,0.03,16.1,WeatherDisplay:10.37,2014-01-02 20:51:00,
2014-01-02 15:56:00,47.9,45.4,29.69,SSE,158,0.0,0.0,91,0.03,-RA,,0.03,13.8,WeatherDisplay:10.37,2014-01-02 20:56:00,
2014-01-02 16:01:00,47.9,45.4,29.68,SSE,158,0.0,0.0,91,0.04,-RA,,0.04,16.1,WeatherDisplay:10.37,2014-01-02 21:01:00,
2014-01-02 16:11:00,47.9,45.7,29.67,SSE,158,0.0,0.0,92,0.03,-RA,,0.04,8.1,WeatherDisplay:10.37,2014-01-02 21:11:00,
2014-01-02 16:16:00,47.7,45.5,29.67,SSE,158,0.0,0.0,92,0.03,-RA,,0.04,5.8,WeatherDisplay:10.37,2014-01-02 21:16:00,
2014-01-02 16:21:00,47.7,45.5,29.67,SSE,158,0.0,0.0,92,0.04,-RA,,0.05,8.1,WeatherDisplay:10.37,2014-01-02 21:21:00,
2014-01-02 16:26:00,47.7,45.5,29.67,SSE,158,0.0,0.0,92,0.03,-RA,,0.05,5.8,WeatherDisplay:10.37,2014-01-02 21:26:00,
2014-01-02 16:31:00,47.7,45.5,29.66,South,183,0.0,0.0,92,0.03,-RA,,0.05,5.8,WeatherDisplay:10.37,2014-01-02 21:31:00,
2014-01-02 16:36:00,47.7,45.5,29.65,SW,216,0.0,0.0,92,0.04,-RA,,0.06,0.0,WeatherDisplay:10.37,2014-01-02 21:36:00,
2014-01-02 16:41:00,47.7,45.5,29.65,SW,219,0.0,0.0,92,0.03,-RA,,0.06,0.0,WeatherDisplay:10.37,2014-01-02 21:41:00,
2014-01-02 16:46:00,47.7,45.5,29.65,SW,217,0.0,0.0,92,0.03,-RA,,0.06,0.0,WeatherDisplay:10.37,2014-01-02 21:46:00,
2014-01-02 16:51:00,47.7,45.5,29.64,SW,217,0.0,0.0,92,0.03,-RA,,0.06,0.0,WeatherDisplay:10.37,2014-01-02 21:51:00,
2014-01-02 16:56:00,47.7,45.8,29.64,SW,217,0.0,0.0,93,0.03,-RA,,0.06,0.0,WeatherDisplay:10.37,2014-01-02 21:56:00,
2014-01-02 17:01:00,47.7,45.8,29.64,SW,217,0.0,0.0,93,0.02,-RA,,0.06,0.0,WeatherDisplay:10.37,2014-01-02 22:01:00,
2014-01-02 17:11:00,47.7,45.8,29.63,SW,217,0.0,0.0,93,0.03,-RA,,0.07,0.0,WeatherDisplay:10.37,2014-01-02 22:11:00,
2014-01-02 17:16:00,47.7,45.8,29.63,SW,217,0.0,0.0,93,0.04,-RA,,0.08,0.0,WeatherDisplay:10.37,2014-01-02 22:16:00,
2014-01-02 17:21:00,47.7,45.8,29.62,SW,217,0.0,0.0,93,0.03,-RA,,0.08,0.0,WeatherDisplay:10.37,2014-01-02 22:21:00,
2014-01-02 17:26:00,47.7,45.8,29.62,SW,217,0.0,0.0,93,0.04,-RA,,0.09,0.0,WeatherDisplay:10.37,2014-01-02 22:26:00,
2014-01-02 17:31:00,47.7,45.8,29.63,SW,217,0.0,0.0,93,0.04,-RA,,0.09,0.0,WeatherDisplay:10.37,2014-01-02 22:31:00,
2014-01-02 17:36:00,47.7,45.8,29.63,SW,217,0.0,0.0,93,0.04,-RA,,0.10,0.0,WeatherDisplay:10.37,2014-01-02 22:36:00,
2014-01-02 17:41:00,47.7,45.8,29.63,SW,217,0.0,0.0,93,0.05,-RA,,0.11,0.0,WeatherDisplay:10.37,2014-01-02 22:41:00,
2014-01-02 17:46:00,47.7,45.8,29.63,SW,217,0.0,0.0,93,0.06,-RA,,0.12,0.0,WeatherDisplay:10.37,2014-01-02 22:46:00,
2014-01-02 17:51:00,47.7,45.8,29.63,SW,217,0.0,0.0,93,0.06,-RA,,0.12,0.0,WeatherDisplay:10.37,2014-01-02 22:51:00,
2014-01-02 17:56:00,47.7,46.1,29.63,SW,217,0.0,0.0,94,0.07,-RA,,0.13,0.0,WeatherDisplay:10.37,2014-01-02 22:56:00,
2014-01-02 18:01:00,47.7,46.1,29.62,SW,217,0.0,0.0,94,0.08,-RA,,0.14,0.0,WeatherDisplay:10.37,2014-01-02 23:01:00,
2014-01-02 18:11:00,47.7,46.1,29.62,SW,217,0.0,0.0,94,0.08,-RA,,0.15,0.0,WeatherDisplay:10.37,2014-01-02 23:11:00,
2014-01-02 18:16:00,47.9,46.3,29.63,SW,233,0.0,0.0,94,0.08,-RA,,0.16,0.0,WeatherDisplay:10.37,2014-01-02 23:16:00,
2014-01-02 18:21:00,47.9,46.3,29.64,WSW,251,0.0,0.0,94,0.09,-RA,,0.17,0.0,WeatherDisplay:10.37,2014-01-02 23:21:00,
2014-01-02 18:26:00,47.9,46.3,29.64,WSW,255,0.0,0.0,94,0.08,-RA,,0.17,0.0,WeatherDisplay:10.37,2014-01-02 23:26:00,
2014-01-02 18:31:00,47.9,46.3,29.64,WSW,258,0.0,0.0,94,0.09,-RA,,0.18,0.0,WeatherDisplay:10.37,2014-01-02 23:31:00,
2014-01-02 18:36:00,47.9,46.3,29.63,West,259,0.0,0.0,94,0.08,-RA,,0.18,0.0,WeatherDisplay:10.37,2014-01-02 23:36:00,
2014-01-02 18:41:00,47.9,46.3,29.63,West,259,0.0,0.0,94,0.07,-RA,,0.18,0.0,WeatherDisplay:10.37,2014-01-02 23:41:00,
2014-01-02 18:46:00,47.9,46.3,29.62,West,259,0.0,0.0,94,0.06,-RA,,0.18,0.0,WeatherDisplay:10.37,2014-01-02 23:46:00,
2014-01-02 18:51:00,47.7,46.1,29.61,West,259,0.0,0.0,94,0.07,-RA,,0.19,0.0,WeatherDisplay:10.37,2014-01-02 23:51:00,
2014-01-02 18:56:00,47.7,46.1,29.61,West,259,0.0,0.0,94,0.06,-RA,,0.19,0.0,WeatherDisplay:10.37,2014-01-02 23:56:00,
2014-01-02 19:01:00,47.7,46.1,29.61,West,259,0.0,0.0,94,0.05,-RA,,0.19,0.0,WeatherDisplay:10.37,2014-01-03 00:01:00,
2014-01-02 19:11:00,47.7,46.1,29.61,West,259,0.0,0.0,94,0.05,-RA,,0.20,0.0,WeatherDisplay:10.37,2014-01-03 00:11:00,
2014-01-02 19:16:00,47.7,46.3,29.61,West,259,0.0,0.0,95,0.04,-RA,,0.20,0.0,WeatherDisplay:10.37,2014-01-03 00:16:00,
2014-01-02 19:21:00,47.7,46.3,29.61,West,259,0.0,0.0,95,0.03,-RA,,0.20,0.0,WeatherDisplay:10.37,2014-01-03 00:21:00,
2014-01-02 19:26:00,47.7,46.3,29.61,West,259,0.0,0.0,95,0.03,-RA,,0.20,0.0,WeatherDisplay:10.37,2014-01-03 00:26:00,
2014-01-02 19:31:00,47.7,46.3,29.61,West,259,0.0,0.0,95,0.02,-RA,,0.20,0.0,WeatherDisplay:10.37,2014-01-03 00:31:00,
2014-01-02 19:36:00,47.7,46.3,29.61,West,259,0.0,0.0,95,0.02,-RA,,0.20,0.0,WeatherDisplay:10.37,2014-01-03 00:36:00,
2014-01-02 19:41:00,47.7,46.3,29.61,West,259,0.0,0.0,95,0.03,-RA,,0.21,0.0,WeatherDisplay:10.37,2014-01-03 00:41:00,
2014-01-02 19:46:00,47.7,46.4,29.61,West,259,0.0,0.0,95,0.03,-RA,,0.21,0.0,WeatherDisplay:10.37,2014-01-03 00:46:00,
2014-01-02 19:51:00,47.9,46.5,29.61,West,259,0.0,0.0,95,0.03,-RA,,0.22,0.0,WeatherDisplay:10.37,2014-01-03 00:51:00,
2014-01-02 19:56:00,47.9,46.5,29.61,West,259,0.0,0.0,95,0.03,-RA,,0.22,0.0,WeatherDisplay:10.37,2014-01-03 00:56:00,
2014-01-02 20:01:00,47.9,46.5,29.61,West,259,0.0,0.0,95,0.03,-RA,,0.22,0.0,WeatherDisplay:10.37,2014-01-03 01:01:00,
2014-01-02 20:11:00,47.9,46.5,29.61,West,261,0.0,0.0,95,0.03,-RA,,0.23,0.0,WeatherDisplay:10.37,2014-01-03 01:11:00,
2014-01-02 20:16:00,47.9,46.5,29.60,West,261,0.0,0.0,95,0.04,-RA,,0.24,0.0,WeatherDisplay:10.37,2014-01-03 01:16:00,
2014-01-02 20:21:00,47.9,46.5,29.60,West,261,0.0,0.0,95,0.04,-RA,,0.24,0.0,WeatherDisplay:10.37,2014-01-03 01:21:00,
2014-01-02 20:26:00,47.9,46.5,29.60,West,261,0.0,0.0,95,0.05,-RA,,0.25,0.0,WeatherDisplay:10.37,2014-01-03 01:26:00,
2014-01-02 20:36:00,47.9,46.5,29.60,West,261,0.0,0.0,95,0.06,-RA,,0.26,0.0,WeatherDisplay:10.37,2014-01-03 01:36:00,
2014-01-02 20:41:00,47.9,46.5,29.60,West,261,0.0,0.0,95,0.06,-RA,,0.27,0.0,WeatherDisplay:10.37,2014-01-03 01:41:00,
2014-01-02 20:46:00,47.9,46.8,29.59,West,261,0.0,0.0,96,0.06,-RA,,0.27,0.0,WeatherDisplay:10.37,2014-01-03 01:46:00,
2014-01-02 20:51:00,47.9,46.8,29.57,West,261,0.0,0.0,96,0.06,-RA,,0.27,0.0,WeatherDisplay:10.37,2014-01-03 01:51:00,
2014-01-02 21:01:00,47.7,46.6,29.57,West,261,0.0,0.0,96,0.05,-RA,,0.27,0.0,WeatherDisplay:10.37,2014-01-03 02:01:00,
2014-01-02 21:11:00,47.7,46.6,29.59,West,273,0.0,0.0,96,0.04,-RA,,0.27,0.0,WeatherDisplay:10.37,2014-01-03 02:11:00,
2014-01-02 21:16:00,47.6,46.5,29.59,WNW,296,0.0,0.0,96,0.03,-RA,,0.27,0.0,WeatherDisplay:10.37,2014-01-03 02:16:00,
2014-01-02 21:26:00,47.4,46.3,29.58,WNW,283,0.0,1.0,96,0.02,-RA,,0.27,0.0,WeatherDisplay:10.37,2014-01-03 02:26:00,
2014-01-02 21:36:00,47.3,46.2,29.59,West,274,0.0,3.0,96,0.01,OVC,,0.27,0.0,WeatherDisplay:10.37,2014-01-03 02:36:00,
2014-01-02 21:41:00,47.3,46.2,29.59,West,268,0.0,0.0,96,0.01,OVC,,0.27,0.0,WeatherDisplay:10.37,2014-01-03 02:41:00,
2014-01-02 21:56:00,47.1,46.0,29.61,West,263,0.0,0.0,96,0.00,OVC,,0.27,0.0,WeatherDisplay:10.37,2014-01-03 02:56:00,
2014-01-02 22:01:00,47.1,46.0,29.61,West,261,0.0,4.0,96,0.00,OVC,,0.27,0.0,WeatherDisplay:10.37,2014-01-03 03:01:00,
2014-01-02 22:16:00,46.8,45.7,29.61,West,265,0.0,5.0,96,0.00,OVC,,0.27,0.0,WeatherDisplay:10.37,2014-01-03 03:16:00,
2014-01-02 22:26:00,46.8,45.7,29.60,NW,311,0.0,0.0,96,0.00,OVC,,0.27,0.0,WeatherDisplay:10.37,2014-01-03 03:26:00,
2014-01-02 22:36:00,46.6,45.6,29.60,NW,306,0.0,0.0,96,0.00,OVC,,0.27,0.0,WeatherDisplay:10.37,2014-01-03 03:36:00,
2014-01-02 22:46:00,46.4,45.3,29.61,WNW,289,0.0,1.0,96,0.00,OVC,,0.27,0.0,WeatherDisplay:10.37,2014-01-03 03:46:00,
2014-01-02 22:51:00,46.2,45.1,29.61,NW,308,0.0,0.0,96,0.00,OVC,,0.27,0.0,WeatherDisplay:10.37,2014-01-03 03:51:00,
2014-01-02 22:56:00,46.1,45.0,29.61,NW,313,0.0,1.0,96,0.00,OVC,,0.27,0.0,WeatherDisplay:10.37,2014-01-03 03:56:00,
2014-01-02 23:01:00,45.8,44.7,29.61,NW,310,0.0,1.0,96,0.00,-RA,,0.27,0.0,WeatherDisplay:10.37,2014-01-03 04:01:00,
2014-01-02 23:16:00,45.1,43.8,29.61,North,357,0.0,0.0,95,0.00,BKN,,0.27,0.0,WeatherDisplay:10.37,2014-01-03 04:16:00,
2014-01-02 23:21:00,44.9,43.5,29.62,North,357,0.0,0.0,95,0.00,BKN,,0.27,0.0,WeatherDisplay:10.37,2014-01-03 04:21:00,
2014-01-02 23:36:00,44.4,43.0,29.62,NNW,330,0.0,0.0,95,0.00,BKN,,0.27,0.0,WeatherDisplay:10.37,2014-01-03 04:36:00,
2014-01-02 23:41:00,44.3,43.0,29.62,NW,321,0.0,0.0,95,0.00,BKN,,0.27,0.0,WeatherDisplay:10.37,2014-01-03 04:41:00,
2014-01-02 23:51:00,44.1,42.8,29.63,NW,314,0.0,4.0,95,0.00,BKN,,0.27,0.0,WeatherDisplay:10.37,2014-01-03 04:51:00,